SIA241 RPLL-WSSS

Flight info

Callsign SIA241
Flight time N/A
Altitude 40000
Route BUCAL2R BUCAL M646 TOKON M767 TOMAN KARTO2B
Aircraft A359/H-SDE2E3GHIJ3J4J5LM1ORWXY/LB1D1

Departure

Time 2026-05-06 15:58
Airport Ninoy Aquino International Airport (RPLL)

Arrival

Time N/A
Airport Singapore Changi Airport (WSSS)
Time Latitude Longitude Altitude Speed Heading
2026-05-06 15:36 14.50426 121.00351 75 ft 0 kts 95°
2026-05-06 15:48 14.50428 121.00335 70 ft 4 kts 99°
2026-05-06 15:49 14.50431 121.00310 64 ft 4 kts 111°
2026-05-06 15:49 14.50446 121.00293 64 ft 4 kts 172°
2026-05-06 15:49 14.50471 121.00294 64 ft 3 kts 186°
2026-05-06 15:49 14.50480 121.00295 64 ft 0 kts 185°
2026-05-06 15:54 14.50475 121.00294 66 ft 1 kts 185°
2026-05-06 15:54 14.50423 121.00289 71 ft 11 kts 185°
2026-05-06 15:54 14.50328 121.00282 68 ft 16 kts 184°
2026-05-06 15:54 14.50223 121.00299 72 ft 16 kts 152°
2026-05-06 15:55 14.50153 121.00332 71 ft 10 kts 171°
2026-05-06 15:55 14.50117 121.00312 69 ft 7 kts 218°
2026-05-06 15:55 14.50080 121.00261 64 ft 11 kts 242°
2026-05-06 15:55 14.50036 121.00180 65 ft 15 kts 240°
2026-05-06 15:56 14.49975 121.00072 68 ft 19 kts 240°
2026-05-06 15:56 14.49906 120.99973 66 ft 8 kts 217°
2026-05-06 15:56 14.49874 120.99972 65 ft 5 kts 163°
2026-05-06 15:56 14.49822 120.99999 69 ft 10 kts 145°
2026-05-06 15:57 14.49800 121.00039 69 ft 5 kts 89°
2026-05-06 15:57 14.49808 121.00051 65 ft 0 kts 58°
2026-05-06 15:58 14.49825 121.00083 70 ft 27 kts 61°
2026-05-06 15:58 14.50086 121.00551 62 ft 120 kts 60°
2026-05-06 15:58 14.50626 121.01522 236 ft 181 kts 61°
2026-05-06 15:58 14.51336 121.02738 754 ft 214 kts 58°
2026-05-06 15:59 14.52143 121.04077 1638 ft 221 kts 59°
2026-05-06 15:59 14.52910 121.05490 2186 ft 236 kts 61°
2026-05-06 15:59 14.53731 121.07028 2806 ft 249 kts 61°
2026-05-06 15:59 14.54586 121.08607 3632 ft 253 kts 61°
2026-05-06 16:00 14.55465 121.10218 4364 ft 261 kts 60°
2026-05-06 16:00 14.56192 121.11949 5080 ft 267 kts 76°
2026-05-06 16:00 14.56172 121.13858 5860 ft 270 kts 104°
2026-05-06 16:00 14.55379 121.15586 6685 ft 271 kts 118°
2026-05-06 16:01 14.54255 121.17169 7380 ft 276 kts 132°
2026-05-06 16:01 14.52642 121.18287 8090 ft 284 kts 156°
2026-05-06 16:01 14.50663 121.18518 8783 ft 294 kts 186°
2026-05-06 16:01 14.48739 121.17729 9475 ft 303 kts 208°
2026-05-06 16:02 14.46981 121.16542 10100 ft 309 kts 212°
2026-05-06 16:02 14.45160 121.15257 10424 ft 325 kts 212°
2026-05-06 16:02 14.43229 121.13914 10696 ft 342 kts 212°
2026-05-06 16:02 14.41198 121.12524 10996 ft 354 kts 212°
2026-05-06 16:03 14.39143 121.11129 11461 ft 359 kts 211°
2026-05-06 16:03 14.37048 121.09716 12021 ft 361 kts 211°
2026-05-06 16:03 14.34920 121.08284 12540 ft 365 kts 211°
2026-05-06 16:03 14.32780 121.06846 13052 ft 368 kts 211°
2026-05-06 16:04 14.30649 121.05415 13543 ft 371 kts 211°
2026-05-06 16:04 14.28450 121.03940 14025 ft 374 kts 211°
2026-05-06 16:04 14.26289 121.02494 14472 ft 376 kts 211°
2026-05-06 16:04 14.24081 121.01016 14904 ft 379 kts 212°
2026-05-06 16:05 14.21865 120.99531 15395 ft 381 kts 211°
2026-05-06 16:05 14.19640 120.98040 15754 ft 386 kts 212°
2026-05-06 16:05 14.17377 120.96524 16151 ft 391 kts 211°
2026-05-06 16:05 14.15085 120.94991 16622 ft 391 kts 212°
2026-05-06 16:06 14.12802 120.93464 17162 ft 392 kts 212°
2026-05-06 16:06 14.10500 120.91924 17609 ft 394 kts 212°
2026-05-06 16:06 14.08209 120.90391 18048 ft 397 kts 212°
2026-05-06 16:06 14.05877 120.88831 18420 ft 400 kts 212°
2026-05-06 16:07 14.03557 120.87281 18811 ft 402 kts 212°
2026-05-06 16:07 14.01205 120.85709 19192 ft 403 kts 212°
2026-05-06 16:07 13.98846 120.84133 19584 ft 405 kts 212°
2026-05-06 16:07 13.96462 120.82541 19972 ft 407 kts 212°
2026-05-06 16:08 13.94079 120.80949 20356 ft 409 kts 212°
2026-05-06 16:08 13.91674 120.79344 20731 ft 411 kts 212°
2026-05-06 16:08 13.89302 120.77761 21094 ft 413 kts 212°
2026-05-06 16:08 13.86867 120.76136 21461 ft 415 kts 212°
2026-05-06 16:09 13.84428 120.74509 21849 ft 417 kts 212°
2026-05-06 16:09 13.82001 120.72889 22071 ft 423 kts 212°
2026-05-06 16:09 13.79520 120.71234 22360 ft 428 kts 212°
2026-05-06 16:09 13.77012 120.69564 22741 ft 428 kts 212°
2026-05-06 16:10 13.74506 120.67894 23169 ft 429 kts 212°
2026-05-06 16:10 13.72025 120.66242 23547 ft 430 kts 212°
2026-05-06 16:10 13.69485 120.64551 23832 ft 433 kts 212°
2026-05-06 16:10 13.66952 120.62864 24125 ft 435 kts 212°
2026-05-06 16:11 13.64428 120.61184 24482 ft 435 kts 213°
2026-05-06 16:11 13.61886 120.59493 24867 ft 435 kts 212°
2026-05-06 16:11 13.59281 120.57907 25226 ft 435 kts 208°
2026-05-06 16:11 13.56579 120.56482 25550 ft 437 kts 206°
2026-05-06 16:12 13.53827 120.55133 25873 ft 439 kts 205°
2026-05-06 16:12 13.51036 120.53813 26211 ft 441 kts 204°
2026-05-06 16:12 13.48265 120.52515 26560 ft 442 kts 205°
2026-05-06 16:12 13.45445 120.51189 26931 ft 444 kts 205°
2026-05-06 16:13 13.42637 120.49860 27293 ft 445 kts 205°
2026-05-06 16:13 13.39820 120.48517 27690 ft 446 kts 205°
2026-05-06 16:13 13.36999 120.47165 28051 ft 448 kts 205°
2026-05-06 16:13 13.34163 120.45802 28399 ft 451 kts 205°
2026-05-06 16:14 13.31353 120.44450 28746 ft 453 kts 205°
2026-05-06 16:14 13.28478 120.43068 29118 ft 455 kts 205°
2026-05-06 16:14 13.25602 120.41686 29493 ft 457 kts 205°
2026-05-06 16:14 13.22704 120.40292 29880 ft 459 kts 206°
2026-05-06 16:15 13.19798 120.38896 30241 ft 461 kts 206°
2026-05-06 16:15 13.16920 120.37514 30586 ft 463 kts 206°
2026-05-06 16:15 13.13988 120.36106 30920 ft 466 kts 206°
2026-05-06 16:15 13.11036 120.34690 31267 ft 468 kts 206°
2026-05-06 16:16 13.08062 120.33263 31628 ft 471 kts 206°
2026-05-06 16:16 13.05123 120.31854 31963 ft 473 kts 206°
2026-05-06 16:16 13.02130 120.30419 32296 ft 475 kts 206°
2026-05-06 16:16 12.99119 120.28976 32643 ft 478 kts 206°
2026-05-06 16:17 12.96096 120.27528 32942 ft 480 kts 206°
2026-05-06 16:17 12.93048 120.26068 33235 ft 483 kts 206°
2026-05-06 16:17 12.89984 120.24601 33566 ft 486 kts 206°
2026-05-06 16:17 12.86950 120.23148 33886 ft 488 kts 206°
2026-05-06 16:18 12.83859 120.21669 34186 ft 490 kts 206°
2026-05-06 16:18 12.80762 120.20187 34482 ft 491 kts 206°
2026-05-06 16:18 12.77653 120.18700 34808 ft 492 kts 206°
2026-05-06 16:18 12.74540 120.17212 35127 ft 494 kts 206°
2026-05-06 16:19 12.71469 120.15744 35531 ft 492 kts 206°
2026-05-06 16:19 12.68344 120.14251 36029 ft 489 kts 206°
2026-05-06 16:19 12.66323 120.13285 36348 ft 487 kts 206°
2026-05-06 16:19 12.62231 120.11331 36962 ft 485 kts 206°
2026-05-06 16:20 12.59176 120.09872 37438 ft 483 kts 206°
2026-05-06 16:20 12.56141 120.08423 37919 ft 481 kts 206°
2026-05-06 16:20 12.54119 120.07458 38261 ft 480 kts 206°
2026-05-06 16:20 12.51072 120.06004 38717 ft 477 kts 206°
2026-05-06 16:21 12.48068 120.04571 39080 ft 477 kts 206°
2026-05-06 16:21 12.45096 120.03153 39404 ft 476 kts 206°
2026-05-06 16:21 12.42077 120.01713 39726 ft 476 kts 206°
2026-05-06 16:21 12.39084 120.00286 39872 ft 476 kts 206°
2026-05-06 16:22 12.33043 119.97407 39885 ft 475 kts 206°
2026-05-06 16:22 12.27102 119.94577 39884 ft 476 kts 206°
2026-05-06 16:23 12.21071 119.91705 39887 ft 476 kts 206°
2026-05-06 16:23 12.15101 119.88865 39886 ft 476 kts 206°
2026-05-06 16:24 12.09084 119.86003 39886 ft 476 kts 206°
2026-05-06 16:24 12.03073 119.83146 39887 ft 476 kts 206°
2026-05-06 16:25 11.97076 119.80296 39886 ft 477 kts 206°
2026-05-06 16:25 11.91080 119.77449 39887 ft 477 kts 206°
2026-05-06 16:26 11.85019 119.74572 39884 ft 477 kts 206°
2026-05-06 16:26 11.79031 119.71732 39884 ft 477 kts 206°
2026-05-06 16:27 11.73096 119.68725 39883 ft 476 kts 212°
2026-05-06 16:27 11.68006 119.64425 39883 ft 475 kts 229°
2026-05-06 16:28 11.63955 119.59157 39883 ft 475 kts 234°
2026-05-06 16:28 11.60083 119.53662 39880 ft 475 kts 234°
2026-05-06 16:29 11.56235 119.48176 39882 ft 475 kts 234°
2026-05-06 16:29 11.52376 119.42745 39886 ft 475 kts 234°
2026-05-06 16:30 11.49130 119.38207 39884 ft 475 kts 234°
2026-05-06 16:30 11.44590 119.31874 39889 ft 476 kts 234°
2026-05-06 16:31 11.40672 119.26410 39885 ft 476 kts 234°
2026-05-06 16:31 11.36784 119.20988 39883 ft 476 kts 234°
2026-05-06 16:32 11.32887 119.15555 39883 ft 476 kts 234°
2026-05-06 16:32 11.28976 119.10107 39884 ft 476 kts 234°
2026-05-06 16:33 11.25072 119.04671 39886 ft 476 kts 234°
2026-05-06 16:34 11.19203 118.96505 39884 ft 476 kts 234°
2026-05-06 16:34 11.15288 118.91061 39884 ft 476 kts 234°
2026-05-06 16:35 11.11387 118.85641 39887 ft 476 kts 234°
2026-05-06 16:35 11.07471 118.80207 39885 ft 476 kts 234°
2026-05-06 16:36 11.03541 118.74747 39882 ft 476 kts 234°
2026-05-06 16:36 10.99634 118.69322 39886 ft 476 kts 234°
2026-05-06 16:37 10.95705 118.63871 39884 ft 477 kts 234°
2026-05-06 16:37 10.91796 118.58454 39886 ft 477 kts 234°
2026-05-06 16:38 10.87860 118.53001 39883 ft 477 kts 234°
2026-05-06 16:38 10.83922 118.47548 39878 ft 486 kts 234°
2026-05-06 16:39 10.79876 118.41947 39882 ft 491 kts 234°
2026-05-06 16:39 10.75847 118.36374 39882 ft 491 kts 234°
2026-05-06 16:40 10.71789 118.30763 39887 ft 491 kts 234°
2026-05-06 16:40 10.67758 118.25193 39889 ft 491 kts 234°
2026-05-06 16:41 10.63695 118.19581 39884 ft 491 kts 234°
2026-05-06 16:41 10.59641 118.13985 39887 ft 491 kts 234°
2026-05-06 16:42 10.55603 118.08414 39881 ft 492 kts 234°
2026-05-06 16:42 10.51540 118.02808 39884 ft 491 kts 233°
2026-05-06 16:43 10.47509 117.97252 39883 ft 491 kts 233°
2026-05-06 16:43 10.43445 117.91655 39884 ft 491 kts 233°
2026-05-06 16:44 10.39378 117.86055 39884 ft 491 kts 233°
2026-05-06 16:44 10.35338 117.80494 39883 ft 491 kts 233°
2026-05-06 16:45 10.31295 117.74880 39882 ft 491 kts 234°
2026-05-06 16:45 10.27311 117.69302 39881 ft 491 kts 234°
2026-05-06 16:46 10.23279 117.63661 39881 ft 491 kts 234°
2026-05-06 16:46 10.19276 117.58074 39881 ft 491 kts 234°
2026-05-06 16:47 10.15264 117.52483 39884 ft 491 kts 234°
2026-05-06 16:47 10.11232 117.46864 39885 ft 491 kts 234°
2026-05-06 16:48 10.07226 117.41286 39887 ft 491 kts 234°
2026-05-06 16:48 10.03182 117.35656 39886 ft 491 kts 234°
2026-05-06 16:49 9.99171 117.30076 39886 ft 492 kts 234°
2026-05-06 16:49 9.95132 117.24459 39884 ft 492 kts 234°
2026-05-06 16:50 9.91116 117.18876 39884 ft 491 kts 234°
2026-05-06 16:50 9.87079 117.13267 39884 ft 492 kts 234°
2026-05-06 16:51 9.83038 117.07655 39888 ft 492 kts 234°
2026-05-06 16:51 9.79017 117.02075 39886 ft 492 kts 234°
2026-05-06 16:52 9.74962 116.96449 39886 ft 492 kts 234°
2026-05-06 16:52 9.70943 116.90875 39887 ft 492 kts 234°
2026-05-06 16:53 9.66880 116.85243 39887 ft 493 kts 234°
2026-05-06 16:53 9.62842 116.79648 39888 ft 493 kts 234°
2026-05-06 16:54 9.58809 116.74064 39884 ft 492 kts 234°
2026-05-06 16:54 9.54750 116.68445 39885 ft 493 kts 234°
2026-05-06 16:55 9.50721 116.62872 39886 ft 493 kts 234°
2026-05-06 16:55 9.46658 116.57253 39887 ft 493 kts 234°
2026-05-06 16:56 9.42596 116.51637 39887 ft 493 kts 234°
2026-05-06 16:56 9.38555 116.46054 39887 ft 494 kts 234°
2026-05-06 16:57 9.34492 116.40443 39885 ft 493 kts 234°
2026-05-06 16:57 9.30423 116.34827 39884 ft 493 kts 234°
2026-05-06 16:58 9.26384 116.29258 39884 ft 494 kts 233°
2026-05-06 16:58 9.22295 116.23657 39884 ft 493 kts 233°
2026-05-06 16:59 9.18223 116.18089 39885 ft 493 kts 233°
2026-05-06 16:59 9.14126 116.12487 39884 ft 497 kts 233°
2026-05-06 17:00 9.10003 116.06852 39885 ft 498 kts 233°
2026-05-06 17:00 9.05897 116.01239 39890 ft 498 kts 233°
2026-05-06 17:01 9.01772 115.95604 39886 ft 498 kts 233°
2026-05-06 17:01 8.97643 115.89965 39886 ft 496 kts 233°
2026-05-06 17:02 8.93550 115.84385 39890 ft 496 kts 233°
2026-05-06 17:02 8.89431 115.78766 39889 ft 496 kts 233°
2026-05-06 17:03 8.85312 115.73142 39891 ft 498 kts 233°
2026-05-06 17:03 8.81194 115.67524 39890 ft 500 kts 233°
2026-05-06 17:04 8.77037 115.61856 39889 ft 500 kts 233°
2026-05-06 17:04 8.72921 115.56247 39888 ft 499 kts 233°
2026-05-06 17:05 8.68767 115.50591 39884 ft 499 kts 233°
2026-05-06 17:05 8.64624 115.44952 39884 ft 499 kts 233°
2026-05-06 17:06 8.60496 115.39334 39885 ft 499 kts 233°
2026-05-06 17:06 8.56350 115.33695 39885 ft 499 kts 233°
2026-05-06 17:07 8.52226 115.28087 39889 ft 500 kts 233°
2026-05-06 17:07 8.48068 115.22435 39885 ft 500 kts 233°
2026-05-06 17:08 8.43936 115.16822 39883 ft 500 kts 233°
2026-05-06 17:08 8.39772 115.11168 39887 ft 500 kts 233°
2026-05-06 17:09 8.36323 115.06486 39881 ft 500 kts 233°
2026-05-06 17:09 8.32184 115.00869 39886 ft 500 kts 233°
2026-05-06 17:10 8.28006 114.95203 39879 ft 502 kts 233°
2026-05-06 17:10 8.23850 114.89567 39881 ft 503 kts 233°
2026-05-06 17:11 8.19666 114.83897 39880 ft 503 kts 233°
2026-05-06 17:11 8.15481 114.78227 39876 ft 503 kts 232°
2026-05-06 17:12 8.11293 114.72556 39882 ft 503 kts 233°
2026-05-06 17:12 8.07108 114.66890 39876 ft 503 kts 233°
2026-05-06 17:13 8.02943 114.61253 39880 ft 503 kts 233°